KD7MPG-3 Weather Reports


time (UTC)temp
F
wind
direction
speed
knots
gust
knots
rain 1hr
in
rain 24hr
in
rain mn
in
humidity
%
barometer
mb
20260505152919 55 277 0.9 2.6 0.00 0.00 0.00 88 1024.8
20260505152418 55 277 0.9 3.5 0.00 0.00 0.00 87 1024.7
20260505151920 55 279 0.9 3.5 0.00 0.00 0.00 88 1024.8
20260505151414 55 309 0.9 2.6 0.00 0.00 0.00 88 1024.8
20260505150912 55 237 0.0 1.7 0.00 0.00 0.00 88 1024.7
20260505150412 55 219 0.9 1.7 0.00 0.00 0.00 88 1024.7
20260505140356 54 223 0.0 1.7 0.00 0.00 0.00 89 1024.2
20260505124840 54 269 0.9 3.5 0.00 0.00 0.00 89 1023.8
20260505124340 54 222 1.7 3.5 0.00 0.00 0.00 89 1023.8
20260505123841 54 269 0.9 3.5 0.00 0.00 0.00 89 1023.8
20260505123338 54 234 0.9 3.5 0.00 0.00 0.00 89 1023.8
20260505122836 54 231 0.9 2.6 0.00 0.00 0.00 89 1023.9
20260505122336 54 238 0.9 2.6 0.00 0.00 0.00 89 1023.8
20260505121832 54 235 0.9 3.5 0.00 0.00 0.00 89 1023.9
20260505121332 54 227 1.7 3.5 0.00 0.00 0.00 89 1023.8
20260505120833 54 229 1.7 3.5 0.00 0.00 0.00 89 1023.8
20260505120332 54 211 1.7 3.5 0.00 0.00 0.00 89 1023.6
20260505115829 54 265 1.7 3.5 0.00 0.00 0.00 89 1023.7
20260505115330 54 259 0.9 2.6 0.00 0.00 0.00 88 1023.7
20260505114824 54 269 0.9 3.5 0.00 0.00 0.00 88 1023.7
20260505114324 54 213 1.7 3.5 0.00 0.00 0.00 88 1023.7
20260505113824 54 219 1.7 3.5 0.00 0.00 0.00 88 1023.6
20260505113325 54 243 0.9 4.3 0.00 0.00 0.00 88 1023.7
20260505112824 54 161 0.9 4.3 0.00 0.00 0.00 88 1023.6
20260505112324 54 223 0.9 4.3 0.00 0.00 0.00 88 1023.6
20260505111823 54 238 0.9 3.5 0.00 0.00 0.00 88 1023.6
20260505111321 54 207 0.9 3.5 0.00 0.00 0.00 88 1023.5
20260505110818 54 184 0.9 3.5 0.00 0.00 0.00 88 1023.4
20260505110318 54 206 0.0 2.6 0.00 0.00 0.00 88 1023.5
20260505101807 54 176 0.9 3.5 0.00 0.00 0.00 89 1023.2
20260505101308 54 142 0.9 3.5 0.00 0.00 0.00 89 1023.2
20260505100807 54 146 0.9 3.5 0.00 0.00 0.00 89 1023.1
20260505100308 54 145 0.0 2.6 0.00 0.00 0.00 89 1023.3
20260505095805 54 145 0.0 1.7 0.00 0.00 0.00 89 1023.1
20260505095307 54 145 0.0 1.7 0.00 0.00 0.00 89 1023.2
20260505094800 54 150 0.0 0.9 0.00 0.00 0.00 89 1023.1
20260505094300 54 147 0.0 0.9 0.00 0.00 0.00 89 1023.0
20260505093800 54 147 0.0 1.7 0.00 0.00 0.00 89 1023.0
20260505093300 54 146 0.0 1.7 0.00 0.00 0.00 89 1022.9
20260505092759 54 146 0.0 0.9 0.00 0.00 0.00 89 1022.9
20260505092301 54 148 0.0 1.7 0.00 0.00 0.00 89 1022.9
20260505091758 54 147 0.0 1.7 0.00 0.00 0.00 89 1022.9
20260505091255 54 147 0.9 2.6 0.00 0.00 0.00 89 1022.9
20260505090756 53 147 0.9 2.6 0.00 0.00 0.00 89 1022.9
20260505090256 53 142 0.0 2.6 0.00 0.00 0.00 89 1022.9
20260505085754 53 187 0.0 1.7 0.00 0.00 0.00 89 1022.9
20260505085254 53 186 0.0 1.7 0.00 0.00 0.00 89 1022.9
20260505084748 53 186 0.0 2.6 0.00 0.00 0.00 90 1022.9
20260505084245 53 205 0.0 2.6 0.00 0.00 0.00 89 1022.9
20260505083745 53 204 0.0 1.7 0.00 0.00 0.00 89 1023.0
20260505083247 53 205 0.0 2.6 0.00 0.00 0.00 89 1022.9
20260505082746 53 205 0.9 2.6 0.00 0.00 0.00 90 1022.9
20260505082245 53 178 0.9 3.5 0.00 0.00 0.00 90 1022.8
20260505081745 53 179 0.9 3.5 0.00 0.00 0.00 90 1022.9
20260505081244 52 166 0.0 3.5 0.00 0.00 0.00 90 1022.9
20260505080743 52 167 0.0 2.6 0.00 0.00 0.00 90 1022.9
20260505080240 52 167 0.0 1.7 0.00 0.00 0.00 89 1022.9
20260505075741 52 169 0.9 1.7 0.00 0.00 0.00 89 1022.8
20260505075240 52 169 0.9 3.5 0.00 0.00 0.00 89 1022.8
20260505074739 52 170 0.9 3.5 0.00 0.00 0.00 89 1022.7
20260505074240 52 186 0.9 3.5 0.00 0.00 0.00 89 1022.7
20260505073740 52 165 0.9 3.5 0.00 0.00 0.00 89 1022.6
20260505073236 53 214 0.0 2.6 0.00 0.00 0.00 89 1022.6
20260505072736 53 158 0.0 1.7 0.00 0.00 0.00 89 1022.7
20260505072235 53 158 0.0 1.7 0.00 0.00 0.00 89 1022.7
20260505071736 53 171 0.0 3.5 0.00 0.00 0.00 88 1022.7
20260505071235 53 171 0.9 3.5 0.00 0.00 0.00 88 1022.6
20260505070737 53 238 0.0 2.6 0.00 0.00 0.00 88 1022.4
20260505070232 53 211 0.0 1.7 0.00 0.00 0.00 88 1022.3
20260505065733 54 211 0.0 1.7 0.00 0.00 0.00 88 1022.3
20260505065228 54 211 0.0 2.6 0.00 0.00 0.00 88 1022.3
20260505064727 54 211 0.9 2.6 0.00 0.00 0.00 88 1022.4
20260505064226 54 231 1.7 3.5 0.00 0.00 0.00 88 1022.3
20260505063725 54 219 1.7 3.5 0.00 0.00 0.00 88 1022.2
20260505063226 54 232 1.7 5.2 0.00 0.00 0.00 87 1022.3
20260505062727 54 221 1.7 5.2 0.00 0.00 0.00 87 1022.2
20260505062223 54 232 0.9 4.3 0.00 0.00 0.00 87 1022.2
20260505061721 54 220 0.9 5.2 0.00 0.00 0.00 87 1022.3
20260505061223 55 208 0.9 5.2 0.00 0.00 0.00 87 1022.2
20260505060723 55 287 0.9 2.6 0.00 0.00 0.00 87 1022.3
20260505060219 55 225 0.9 5.2 0.00 0.00 0.00 87 1022.3
20260505055720 55 211 1.7 5.2 0.00 0.00 0.00 87 1022.2
20260505055221 55 209 0.9 7.0 0.00 0.00 0.00 86 1022.1
20260505054715 55 198 1.7 7.0 0.00 0.00 0.00 86 1022.2
20260505054214 55 199 1.7 4.3 0.00 0.00 0.00 86 1022.1
20260505053714 56 11 0.9 4.3 0.00 0.00 0.00 86 1022.1
20260505053215 56 198 1.7 3.5 0.00 0.00 0.00 86 1022.1
20260505052713 56 219 1.7 6.1 0.00 0.00 0.00 86 1022.1
20260505052214 56 232 1.7 6.1 0.00 0.00 0.00 86 1022.1
20260505051714 56 215 1.7 5.2 0.00 0.00 0.00 85 1022.1
20260505051210 57 237 1.7 4.3 0.00 0.00 0.00 85 1022.1
20260505050710 57 227 1.7 5.2 0.00 0.00 0.00 85 1022.0
20260505050211 57 192 1.7 5.2 0.00 0.00 0.00 85 1021.9
20260505041707 60 163 0.9 3.5 0.00 0.00 0.00 82 1021.3
20260505041201 60 184 0.9 2.6 0.00 0.00 0.00 81 1021.2
20260505040702 60 194 0.9 2.6 0.00 0.00 0.00 81 1021.1
20260505040202 61 220 0.9 2.6 0.00 0.00 0.00 80 1020.9
20260505035701 61 222 0.9 3.5 0.00 0.00 0.00 79 1020.8
20260505035202 61 215 0.9 3.5 0.00 0.00 0.00 79 1020.7
20260505034703 62 197 0.9 2.6 0.00 0.00 0.00 78 1020.7
20260505034157 62 221 0.9 2.6 0.00 0.00 0.00 77 1020.7
20260505033659 62 217 0.9 2.6 0.00 0.00 0.00 77 1020.6
20260505033158 63 229 0.9 3.5 0.00 0.00 0.00 76 1020.5
20260505032659 63 205 1.7 4.3 0.00 0.00 0.00 76 1020.3
20260505032155 64 225 1.7 5.2 0.00 0.00 0.00 75 1020.3
20260505031653 64 239 1.7 7.0 0.00 0.00 0.00 75 1020.3
20260505031154 64 257 2.6 7.0 0.00 0.00 0.00 74 1020.2
20260505030652 65 261 1.7 6.1 0.00 0.00 0.00 73 1020.3
20260505030157 65 236 1.7 6.1 0.00 0.00 0.00 73 1020.1
20260505025652 66 261 1.7 6.1 0.00 0.00 0.00 72 1020.0
20260505025149 67 238 2.6 6.1 0.00 0.00 0.00 72 1019.9
20260505024647 67 213 3.5 7.8 0.00 0.00 0.00 72 1019.8
20260505024148 67 189 2.6 7.8 0.00 0.00 0.00 72 1019.7
20260505023643 68 188 2.6 7.0 0.00 0.00 0.00 73 1019.7
20260505023141 68 188 2.6 8.7 0.00 0.00 0.00 73 1019.7
20260505022641 68 193 2.6 8.7 0.00 0.00 0.00 72 1019.6
20260505022142 69 223 3.5 11.3 0.00 0.00 0.00 71 1019.6
20260505021641 69 273 3.5 11.3 0.00 0.00 0.00 71 1019.6
20260505021142 70 236 2.6 7.0 0.00 0.00 0.00 70 1019.6
20260505020637 70 208 3.5 7.0 0.00 0.00 0.00 69 1019.6
20260505020137 70 238 4.3 8.7 0.00 0.00 0.00 69 1019.6
20260505015635 71 243 5.2 9.6 0.00 0.00 0.00 69 1019.5
20260505015135 71 275 4.3 9.6 0.00 0.00 0.00 67 1019.5
20260505014635 73 220 3.5 9.6 0.00 0.00 0.00 67 1019.5
20260505014136 73 279 3.5 8.7 0.00 0.00 0.00 67 1019.5
20260505013629 73 254 2.6 7.8 0.00 0.00 0.00 67 1019.4
20260505013129 73 237 3.5 7.0 0.00 0.00 0.00 67 1019.4
20260505012629 73 251 3.5 7.0 0.00 0.00 0.00 67 1019.4
20260505012129 74 211 3.5 7.8 0.00 0.00 0.00 67 1019.5
20260505011629 74 261 3.5 7.8 0.00 0.00 0.00 67 1019.5
20260505011129 74 290 4.3 7.8 0.00 0.00 0.00 66 1019.5
20260505010626 74 277 3.5 7.8 0.00 0.00 0.00 66 1019.5
20260505010125 75 226 2.6 7.0 0.00 0.00 0.00 65 1019.6
20260505005626 75 265 3.5 7.8 0.00 0.00 0.00 66 1019.6
20260505005125 75 262 3.5 8.7 0.00 0.00 0.00 65 1019.6
20260505004622 75 269 3.5 8.7 0.00 0.00 0.00 64 1019.5
20260505004124 76 274 3.5 6.1 0.00 0.00 0.00 65 1019.6
20260505003621 76 253 3.5 7.8 0.00 0.00 0.00 65 1019.6
20260505003121 76 242 2.6 7.8 0.00 0.00 0.00 64 1019.6
20260505002622 77 225 2.6 6.1 0.00 0.00 0.00 64 1019.5
20260505002119 77 172 1.7 6.1 0.00 0.00 0.00 63 1019.7
20260505001617 77 202 1.7 6.1 0.00 0.00 0.00 64 1019.7
20260505001117 77 156 1.7 5.2 0.00 0.00 0.00 63 1019.8
20260505000613 77 146 1.7 4.3 0.00 0.00 0.00 63 1019.7
20260505000113 77 153 1.7 6.1 0.00 0.00 0.00 63 1019.8
20260504235611 77 217 1.7 6.1 0.00 0.00 0.00 63 1019.7
20260504235111 77 174 0.9 3.5 0.00 0.00 0.00 63 1019.8
20260504234610 76 216 1.7 7.0 0.00 0.00 0.00 63 1019.8
20260504234112 76 168 2.6 7.0 0.00 0.00 0.00 64 1019.9
20260504233605 76 167 1.7 6.1 0.00 0.00 0.00 65 1019.9
20260504233105 76 252 1.7 4.3 0.00 0.00 0.00 63 1019.9
20260504232605 76 223 1.7 6.1 0.00 0.00 0.00 63 1020.0
20260504232104 76 150 1.7 6.1 0.00 0.00 0.00 65 1019.9
20260504231605 76 113 0.9 6.1 0.00 0.00 0.00 64 1020.0
20260504231106 76 165 1.7 4.3 0.00 0.00 0.00 63 1019.9
20260504230559 76 251 2.6 7.8 0.00 0.00 0.00 64 1020.0
20260504230059 75 137 2.6 7.8 0.00 0.00 0.00 67 1020.1
20260504225559 75 142 2.6 7.0 0.00 0.00 0.00 66 1020.1
20260504225100 75 178 2.6 5.2 0.00 0.00 0.00 65 1020.2
20260504224559 75 158 1.7 7.0 0.00 0.00 0.00 67 1020.2
20260504224100 75 182 2.6 7.0 0.00 0.00 0.00 66 1020.3
20260504223558 75 190 2.6 7.0 0.00 0.00 0.00 66 1020.4
20260504223055 75 149 2.6 7.0 0.00 0.00 0.00 66 1020.3
20260504222556 75 80 2.6 7.0 0.00 0.00 0.00 66 1020.5
20260504222055 74 130 2.6 7.0 0.00 0.00 0.00 67 1020.6
20260504221553 74 111 2.6 9.6 0.00 0.00 0.00 68 1020.6
20260504221054 74 224 3.5 9.6 0.00 0.00 0.00 68 1020.7
20260504220548 74 142 3.5 8.7 0.00 0.00 0.00 67 1020.7
20260504220047 74 120 3.5 7.8 0.00 0.00 0.00 69 1020.8
20260504215547 73 103 2.6 7.0 0.00 0.00 0.00 69 1020.7
20260504215046 73 135 2.6 7.0 0.00 0.00 0.00 68 1020.9
20260504214547 73 162 2.6 7.0 0.00 0.00 0.00 69 1021.1
20260504214048 73 156 2.6 7.0 0.00 0.00 0.00 69 1021.1
20260504213542 72 86 2.6 7.0 0.00 0.00 0.00 67 1021.1
20260504213043 72 144 1.7 7.0 0.00 0.00 0.00 69 1021.3
20260504212544 72 182 2.6 7.0 0.00 0.00 0.00 68 1021.3
20260504212042 72 219 2.6 10.4 0.00 0.00 0.00 69 1021.3
20260504211540 72 115 1.7 10.4 0.00 0.00 0.00 70 1021.3
20260504211042 71 130 2.6 7.0 0.00 0.00 0.00 72 1021.4
20260504210536 71 163 2.6 7.0 0.00 0.00 0.00 71 1021.5
20260504210034 71 207 1.7 7.0 0.00 0.00 0.00 70 1021.6
20260504205532 70 106 2.6 7.0 0.00 0.00 0.00 74 1021.6
20260504205033 70 142 2.6 7.0 0.00 0.00 0.00 73 1021.7
20260504204532 70 225 2.6 7.0 0.00 0.00 0.00 70 1021.9
20260504204034 70 184 2.6 7.0 0.00 0.00 0.00 72 1021.9
20260504203529 69 121 2.6 7.0 0.00 0.00 0.00 74 1022.0
20260504203028 69 317 2.6 7.0 0.00 0.00 0.00 73 1022.0
20260504202530 68 148 2.6 7.0 0.00 0.00 0.00 75 1022.0
20260504202029 68 153 2.6 6.1 0.00 0.00 0.00 73 1022.0
20260504201527 68 165 1.7 7.0 0.00 0.00 0.00 74 1022.1
20260504201026 67 147 1.7 7.0 0.00 0.00 0.00 74 1022.1
20260504200521 67 115 2.6 7.8 0.00 0.00 0.00 73 1022.1
20260504200021 67 157 2.6 7.8 0.00 0.00 0.00 73 1022.1
20260504195521 67 167 2.6 7.8 0.00 0.00 0.00 73 1022.1
20260504195020 67 123 2.6 7.8 0.00 0.00 0.00 74 1022.1
20260504194520 67 170 1.7 7.0 0.00 0.00 0.00 74 1022.3
20260504194022 66 201 2.6 6.1 0.00 0.00 0.00 75 1022.1
20260504193519 66 194 2.6 6.1 0.00 0.00 0.00 76 1022.2
20260504193020 65 191 2.6 6.1 0.00 0.00 0.00 76 1022.0
20260504192513 65 201 2.6 7.8 0.00 0.00 0.00 78 1022.1
20260504192012 64 133 2.6 8.7 0.00 0.00 0.00 78 1022.2
20260504191508 64 170 2.6 8.7 0.00 0.00 0.00 78 1022.3
20260504191008 64 126 2.6 8.7 0.00 0.00 0.00 77 1022.4
20260504190510 64 167 2.6 7.0 0.00 0.00 0.00 78 1022.4
20260504190008 64 131 1.7 7.0 0.00 0.00 0.00 78 1022.4
20260504185509 63 115 2.6 7.8 0.00 0.00 0.00 80 1022.5
20260504185009 63 150 2.6 7.8 0.00 0.00 0.00 80 1022.5
20260504184504 62 192 2.6 7.0 0.00 0.00 0.00 79 1022.5
20260504184006 63 182 2.6 7.0 0.00 0.00 0.00 79 1022.6
20260504183505 62 186 2.6 6.1 0.00 0.00 0.00 81 1022.5
20260504183004 62 156 2.6 7.0 0.00 0.00 0.00 80 1022.5
20260504182504 62 175 1.7 7.0 0.00 0.00 0.00 81 1022.5
20260504182006 62 204 2.6 7.8 0.00 0.00 0.00 81 1022.4
20260504181501 61 121 2.6 7.8 0.00 0.00 0.00 81 1022.5
20260504181001 61 211 2.6 7.8 0.00 0.00 0.00 81 1022.4
20260504180501 61 151 3.5 7.8 0.00 0.00 0.00 81 1022.4
20260504180001 61 163 2.6 6.1 0.00 0.00 0.00 81 1022.5
20260504175500 61 190 2.6 7.8 0.00 0.00 0.00 81 1022.4
20260504175002 61 191 2.6 7.8 0.00 0.00 0.00 81 1022.4
20260504174457 61 173 2.6 7.0 0.00 0.00 0.00 82 1022.5
20260504173957 60 144 2.6 7.0 0.00 0.00 0.00 82 1022.4
20260504173458 60 171 2.6 7.0 0.00 0.00 0.00 82 1022.4
20260504172954 60 162 1.7 7.8 0.00 0.00 0.00 82 1022.4
20260504172455 60 216 1.7 7.8 0.00 0.00 0.00 83 1022.4
20260504171953 60 195 1.7 6.1 0.00 0.00 0.00 83 1022.4
20260504171452 60 194 2.6 8.7 0.00 0.00 0.00 83 1022.4
20260504170953 59 159 2.6 8.7 0.00 0.00 0.00 83 1022.4
20260504170447 59 149 2.6 7.0 0.00 0.00 0.00 84 1022.3
20260504160435 57 165 2.6 9.6 0.00 0.00 0.00 86 1022.4